RYR2907 LGSR-EGSS

Flight info

Callsign RYR2907
Flight time N/A
Altitude 36000
Route MADEX UL53 KOR UL613 YNN UL604 DIMIS DCT INLOT DCT RETRA DCT GACMO DCT EVTON DCT MAGAM DCT LAMSI L604 RUDNO DCT MASEK DCT ARPEG DCT NOGRO M40 RINIS
Aircraft B738/M-SDE3FGILRWY/SB1

Departure

Time 2026-04-26 13:51
Airport Santorini International Airport (LGSR)

Arrival

Time N/A
Airport London Stansted Airport (EGSS)
Time Latitude Longitude Altitude Speed Heading
2026-04-26 13:11 36.40305 25.47402 89 ft 0 kts 248°
2026-04-26 13:41 36.40306 25.47405 89 ft 2 kts 249°
2026-04-26 13:41 36.40313 25.47430 88 ft 4 kts 243°
2026-04-26 13:41 36.40329 25.47449 89 ft 4 kts 180°
2026-04-26 13:42 36.40352 25.47442 89 ft 3 kts 159°
2026-04-26 13:42 36.40354 25.47441 90 ft 0 kts 159°
2026-04-26 13:45 36.40350 25.47443 89 ft 2 kts 159°
2026-04-26 13:45 36.40321 25.47456 89 ft 7 kts 159°
2026-04-26 13:45 36.40270 25.47487 88 ft 9 kts 130°
2026-04-26 13:45 36.40273 25.47560 89 ft 9 kts 89°
2026-04-26 13:46 36.40228 25.47601 88 ft 9 kts 159°
2026-04-26 13:46 36.40167 25.47629 89 ft 10 kts 159°
2026-04-26 13:46 36.40097 25.47662 86 ft 11 kts 159°
2026-04-26 13:46 36.40019 25.47697 89 ft 13 kts 160°
2026-04-26 13:47 36.39929 25.47742 87 ft 15 kts 158°
2026-04-26 13:47 36.39824 25.47791 84 ft 17 kts 158°
2026-04-26 13:47 36.39716 25.47842 80 ft 17 kts 160°
2026-04-26 13:47 36.39584 25.47905 74 ft 24 kts 159°
2026-04-26 13:48 36.39422 25.47981 69 ft 25 kts 160°
2026-04-26 13:48 36.39262 25.48057 62 ft 24 kts 159°
2026-04-26 13:48 36.39112 25.48129 54 ft 24 kts 159°
2026-04-26 13:48 36.39006 25.48196 53 ft 14 kts 112°
2026-04-26 13:49 36.39034 25.48307 56 ft 13 kts 61°
2026-04-26 13:49 36.39094 25.48306 55 ft 2 kts 339°
2026-04-26 13:50 36.39116 25.48295 58 ft 12 kts 339°
2026-04-26 13:50 36.39453 25.48135 63 ft 91 kts 339°
2026-04-26 13:51 36.40269 25.47750 96 ft 157 kts 339°
2026-04-26 13:51 36.41365 25.47232 764 ft 167 kts 338°
2026-04-26 13:51 36.42490 25.47012 1832 ft 169 kts
2026-04-26 13:51 36.43667 25.47015 2579 ft 176 kts 353°
2026-04-26 13:52 36.44965 25.46644 2848 ft 204 kts 346°
2026-04-26 13:52 36.46406 25.46143 3076 ft 225 kts 345°
2026-04-26 13:52 36.47945 25.45605 3552 ft 233 kts 346°
2026-04-26 13:52 36.49522 25.45061 4122 ft 237 kts 346°
2026-04-26 13:53 36.51139 25.44511 4594 ft 249 kts 346°
2026-04-26 13:53 36.52858 25.43933 5063 ft 261 kts 346°
2026-04-26 13:53 36.54635 25.43338 5847 ft 264 kts 345°
2026-04-26 13:53 36.56393 25.42752 6649 ft 267 kts 346°
2026-04-26 13:54 36.58206 25.42150 7393 ft 270 kts 346°
2026-04-26 13:54 36.60050 25.41540 8096 ft 277 kts 346°
2026-04-26 13:54 36.61920 25.40921 8860 ft 280 kts 346°
2026-04-26 13:55 36.65577 25.39100 10230 ft 294 kts 319°
2026-04-26 13:55 36.66514 25.37830 10551 ft 305 kts 309°
2026-04-26 13:55 36.69443 25.32643 12101 ft 317 kts 306°
2026-04-26 13:56 36.70688 25.30365 12879 ft 319 kts 306°
2026-04-26 13:56 36.71944 25.28075 13617 ft 321 kts 306°
2026-04-26 13:56 36.73214 25.25772 14291 ft 325 kts 307°
2026-04-26 13:56 36.74504 25.23447 14940 ft 327 kts 307°
2026-04-26 13:57 36.75806 25.21105 15627 ft 329 kts 307°
2026-04-26 13:57 36.77114 25.18756 16278 ft 332 kts 308°
2026-04-26 13:57 36.78440 25.16378 16908 ft 335 kts 308°
2026-04-26 13:57 36.79777 25.13981 17546 ft 338 kts 308°
2026-04-26 13:58 36.81126 25.11564 18191 ft 341 kts 308°
2026-04-26 13:58 36.82488 25.09120 18745 ft 344 kts 308°
2026-04-26 13:58 36.83860 25.06658 19287 ft 347 kts 308°
2026-04-26 13:58 36.85241 25.04177 19851 ft 349 kts 308°
2026-04-26 13:59 36.86633 25.01674 20402 ft 352 kts 308°
2026-04-26 13:59 36.88013 24.99192 20916 ft 354 kts 308°
2026-04-26 13:59 36.89426 24.96649 21456 ft 357 kts 308°
2026-04-26 14:00 36.93717 24.88914 23051 ft 365 kts 308°
2026-04-26 14:00 36.95167 24.86296 23537 ft 368 kts 308°
2026-04-26 14:00 36.96155 24.84511 23822 ft 370 kts 308°
2026-04-26 14:01 36.98097 24.80999 24424 ft 372 kts 308°
2026-04-26 14:01 36.99571 24.78331 24855 ft 374 kts 308°
2026-04-26 14:01 37.01051 24.75650 25278 ft 376 kts 308°
2026-04-26 14:01 37.02540 24.72951 25695 ft 378 kts 308°
2026-04-26 14:02 37.04037 24.70235 26101 ft 380 kts 308°
2026-04-26 14:02 37.05542 24.67504 26508 ft 381 kts 308°
2026-04-26 14:02 37.07051 24.64762 26907 ft 383 kts 308°
2026-04-26 14:02 37.08569 24.62000 27298 ft 385 kts 308°
2026-04-26 14:03 37.10090 24.59231 27684 ft 387 kts 308°
2026-04-26 14:03 37.11621 24.56443 28064 ft 389 kts 308°
2026-04-26 14:03 37.13157 24.53641 28428 ft 391 kts 308°
2026-04-26 14:03 37.14705 24.50818 28804 ft 393 kts 308°
2026-04-26 14:04 37.16260 24.47976 29110 ft 395 kts 308°
2026-04-26 14:04 37.17817 24.45131 29483 ft 397 kts 308°
2026-04-26 14:04 37.19380 24.42271 29855 ft 398 kts 308°
2026-04-26 14:04 37.20952 24.39395 30188 ft 400 kts 308°
2026-04-26 14:05 37.22490 24.36477 30445 ft 402 kts 306°
2026-04-26 14:05 37.23996 24.33506 30717 ft 404 kts 306°
2026-04-26 14:05 37.25493 24.30508 30973 ft 406 kts 306°
2026-04-26 14:05 37.26991 24.27498 31223 ft 408 kts 306°
2026-04-26 14:06 37.28500 24.24470 31477 ft 410 kts 306°
2026-04-26 14:06 37.30020 24.21426 31728 ft 411 kts 306°
2026-04-26 14:06 37.31544 24.18380 31962 ft 413 kts 306°
2026-04-26 14:06 37.33077 24.15318 32201 ft 415 kts 306°
2026-04-26 14:07 37.34619 24.12239 32428 ft 417 kts 306°
2026-04-26 14:07 37.36163 24.09158 32649 ft 418 kts 306°
2026-04-26 14:07 37.37716 24.06052 32858 ft 420 kts 305°
2026-04-26 14:07 37.39271 24.02943 33067 ft 422 kts 305°
2026-04-26 14:08 37.40815 23.99850 33271 ft 423 kts 305°